"Pseudo-MPEC" for A1179PL

Created 2024 Jun 18 10:22:03 UT using Find_Orb

Click here for an explanation of pseudo-MPECs

 
 Astrometry: 
     A1179PL* C2024 06 01sd,,Gp-#m.@*v=@y$]My`1=AstrometryIb4ItvD\Fx-_0mGPQCHT08
     A1179PL  C2024 06 01qv/#o4w?P2B1`r/@T/a0Wr#XH/UJZ+Qi.1_vredacted;.X'@T8LT08
     A1179PL  C2024 06 01!Z1rBuOnRapclickaAB!r1c]J`k(Af63Fb4GCy??tIgMhere0]h'T08
     A1179PL  C2024 06 01$0(Pvlfor3explanationF,Y)ME?`k\NlYN2x[eOEL[(/1$Uy%;2T08

Station data:
(T08) ATLAS-MLO, Mauna Loa  (N19.536150 W155.576050)  US/Hawaii.  Observers
   L. Denneau, A. Heinze, H. Weiland, J. Tonry, H. Flewelling, A.
   Fitzsimmons, D. Young, B. Stalder. Measurers L. Denneau, A. Heinze, J.
   Tonry. 0.5-m f/2.0 Schmidt + CCD.

Orbital elements:  A1179PL
   Perihelion 2024 Jun 13.66326 +/- 43.3 TT = 15:55:05 (JD 2460475.16326)
Epoch 2024 Jun  2.0 TT = JDT 2460463.5   Earth MOID: 0.0206      AutoNEOCP
M 352.76133007 +/- 46               (J2000 ecliptic)
n   0.62063863 +/- 0.368            Peri.   13.48753 +/- 60
a   1.36116312 +/- 0.538            Node   251.47142 +/- 0.7
e   0.2436559 +/- 0.175             Incl.   17.13922 +/- 11
P   1.59/580.04d           H 23.74  G  0.15   U 12.1  SR
q 1.02950759 +/- 0.19    Q 1.69281865 +/- 1.39
From 4 observations 2024 June 1 (19.5 min); mean residual 1".00
Residuals in arcseconds: 
240601 T08  .16-  1.7-    240601 T08  .04+  .89+    
240601 T08  .19+  1.8+    240601 T08  .07-  .94-    

Ephemerides (geocentric):
Date (UTC) HH   RA             Dec           delta  r     elong  mag " sig PA
---- --------  ------------   ------------  ------ ------ -----  --- --------
2024 06 18 10  20 17 28.734   +55 15 29.38  .10220 1.0302  95.1 21.6  42d 111
2024 06 18 11  20 17 30.993   +55 17 30.08  .10242 1.0302  95.1 21.6  42d 111
2024 06 18 12  20 17 33.244   +55 19 30.21  .10264 1.0303  95.1 21.6  42d 111
2024 06 18 13  20 17 35.487   +55 21 29.80  .10286 1.0303  95.1 21.6  42d 111
2024 06 18 14  20 17 37.722   +55 23 28.84  .10308 1.0303  95.1 21.6  42d 111
2024 06 18 15  20 17 39.950   +55 25 27.34  .10330 1.0303  95.1 21.6  42d 111
2024 06 18 16  20 17 42.169   +55 27 25.29  .10352 1.0303  95.0 21.6  42d 111
2024 06 18 17  20 17 44.380   +55 29 22.71  .10374 1.0303  95.0 21.7  42d 111
2024 06 18 18  20 17 46.584   +55 31 19.59  .10397 1.0303  95.0 21.7  42d 111
2024 06 18 19  20 17 48.780   +55 33 15.95  .10419 1.0303  95.0 21.7  42d 111
2024 06 18 20  20 17 50.968   +55 35 11.77  .10441 1.0304  95.0 21.7  41d 111
2024 06 18 21  20 17 53.149   +55 37 07.08  .10463 1.0304  95.0 21.7  41d 111
2024 06 18 22  20 17 55.322   +55 39 01.86  .10485 1.0304  94.9 21.7  41d 111
2024 06 18 23  20 17 57.487   +55 40 56.13  .10507 1.0304  94.9 21.7  41d 111
2024 06 19 00  20 17 59.644   +55 42 49.88  .10529 1.0304  94.9 21.7  41d 111
2024 06 19 01  20 18 01.794   +55 44 43.13  .10551 1.0304  94.9 21.7  41d 111
2024 06 19 02  20 18 03.937   +55 46 35.87  .10573 1.0305  94.9 21.7  41d 111
2024 06 19 03  20 18 06.071   +55 48 28.10  .10595 1.0305  94.9 21.7  41d 111
2024 06 19 04  20 18 08.199   +55 50 19.83  .10618 1.0305  94.8 21.7  41d 111
2024 06 19 05  20 18 10.319   +55 52 11.07  .10640 1.0305  94.8 21.7  41d 111
2024 06 19 06  20 18 12.431   +55 54 01.81  .10662 1.0305  94.8 21.7  41d 111
2024 06 19 07  20 18 14.536   +55 55 52.06  .10684 1.0305  94.8 21.7  41d 111
2024 06 19 08  20 18 16.633   +55 57 41.83  .10706 1.0305  94.8 21.7  41d 111
2024 06 19 09  20 18 18.724   +55 59 31.10  .10728 1.0306  94.8 21.7  41d 111
2024 06 19 10  20 18 20.806   +56 01 19.90  .10750 1.0306  94.7 21.7  41d 111
2024 06 19 11  20 18 22.882   +56 03 08.22  .10772 1.0306  94.7 21.7  41d 111
2024 06 19 12  20 18 24.950   +56 04 56.06  .10794 1.0306  94.7 21.7  41d 111
2024 06 19 13  20 18 27.011   +56 06 43.43  .10816 1.0306  94.7 21.7  41d 111
2024 06 19 14  20 18 29.065   +56 08 30.33  .10838 1.0306  94.7 21.8  41d 111
2024 06 19 15  20 18 31.111   +56 10 16.76  .10860 1.0307  94.7 21.8  41d 111
2024 06 19 16  20 18 33.150   +56 12 02.73  .10882 1.0307  94.7 21.8  41d 112
2024 06 19 17  20 18 35.183   +56 13 48.24  .10905 1.0307  94.6 21.8  41d 112
2024 06 19 18  20 18 37.208   +56 15 33.29  .10927 1.0307  94.6 21.8  41d 112
2024 06 19 19  20 18 39.226   +56 17 17.88  .10949 1.0307  94.6 21.8  41d 112
2024 06 19 20  20 18 41.236   +56 19 02.02  .10971 1.0307  94.6 21.8  41d 112
2024 06 19 21  20 18 43.240   +56 20 45.71  .10993 1.0308  94.6 21.8  41d 112
2024 06 19 22  20 18 45.237   +56 22 28.96  .11015 1.0308  94.6 21.8  41d 112
2024 06 19 23  20 18 47.226   +56 24 11.76  .11037 1.0308  94.6 21.8  41d 112
2024 06 20 00  20 18 49.209   +56 25 54.11  .11059 1.0308  94.5 21.8  41d 112
2024 06 20 01  20 18 51.185   +56 27 36.03  .11081 1.0308  94.5 21.8  41d 112
2024 06 20 02  20 18 53.154   +56 29 17.51  .11103 1.0308  94.5 21.8  41d 112
2024 06 20 03  20 18 55.116   +56 30 58.56  .11125 1.0309  94.5 21.8  41d 112
2024 06 20 04  20 18 57.071   +56 32 39.18  .11147 1.0309  94.5 21.8  41d 112
2024 06 20 05  20 18 59.019   +56 34 19.37  .11169 1.0309  94.5 21.8  41d 112
2024 06 20 06  20 19 00.960   +56 35 59.13  .11191 1.0309  94.5 21.8  41d 112
2024 06 20 07  20 19 02.894   +56 37 38.47  .11213 1.0309  94.5 21.8  41d 112
2024 06 20 08  20 19 04.822   +56 39 17.39  .11235 1.0310  94.4 21.8  41d 112
2024 06 20 09  20 19 06.743   +56 40 55.89  .11257 1.0310  94.4 21.8  41d 112